Regional Weather Roundup
Issued by NWS

Home | Current Version | Previous Version | Text Only | Print | Product List | Glossary Off
Versions: 1 2 3 4 5 6 7 8 9 10 11 12 13 14 15 16 17 18 19 20 21 22 23 24 25 26 27 28 29 30 31 32 33 34 35 36 37 38 39 40 41 42 43 44 45 46 47 48 49 50

000
ASUS43 KMPX 300410
RWRMN
WEATHER ROUNDUP FOR MINNESOTA
NATIONAL WEATHER SERVICE TWIN CITIES/CHANHASSEN MN
1100 PM CDT MON AUG 29 2016


NOTE: "FAIR" INDICATES FEW OR NO CLOUDS BELOW 12,000 FEET WITH NO
SIGNIFICANT WEATHER AND/OR OBSTRUCTIONS TO VISIBILITY. N/A MEANS
CURRENT SKY AND/OR WEATHER CONDITIONS ARE NOT AVAILABLE.

MNZ060>063-068>070-300500-
   Twin Cities Metro

CITY           SKY/WX    TMP DP  RH WIND       PRES   REMARKS
TWIN CITIES    CLOUDY    77  65  66 NE15G22   30.15R
ST PAUL        CLOUDY    76  66  71 N15       30.16R
CRYSTAL        CLOUDY    72  60  66 N8        30.16R
BLAINE         LGT RAIN  70  66  88 N5        30.17R
LAKEVILLE      CLEAR     72  72 100 S5        30.15S
EDEN PRAIRIE   CLEAR     76  69  79 S5        30.13S
LAKEVILLE      CLEAR     72  72 100 S5        30.15S
SOUTH ST PAUL  PTCLDY    75  68  77 CALM      30.15R
LAKE ELMO      MOCLDY    72  68  88 NE10      30.19R
$$
MNZ001>005-007-008-013>017-022>024-027-028-300500-
   Northwest Minnesota

CITY           SKY/WX    TMP DP  RH WIND       PRES   REMARKS
BEMIDJI        CLEAR     62  57  84 W5        30.19R
HALLOCK        CLEAR     55  52  88 CALM      30.19R
ROSEAU         CLEAR     57  52  82 CALM      30.18S
WARROAD        CLEAR     57  54  88 CALM      30.18S
THIEF RVR FALL CLEAR     58  53  84 N5        30.20R
CROOKSTON      CLEAR     59  54  82 CALM      30.20R
FOSSTON        CLEAR     55  54  94 CALM      30.21R
DETROIT LAKES  CLEAR     64  61  88 N5        30.20S
MOORHEAD       CLEAR     63  55  77 N6        30.20R
PARK RAPIDS    CLEAR     64  61  90 N6        30.19R
MAHNOMEN       FAIR      61  57  87 CALM      30.19S
$$
MNZ006-009>011-018-025>026-300500-
   North Central Minnesota

CITY           SKY/WX    TMP DP  RH WIND       PRES   REMARKS
BAUDETTE       CLEAR     57  54  89 NW8       30.16R
FLAG ISLAND    CLEAR     63  54  72 NW6       30.15S
INTL FALLS     CLEAR     58  57  97 NW3       30.14R
WASKISH        CLEAR     63  57  82 NW6       30.18R
BIG FORK       CLEAR     61  59  94 CALM      30.18R
LONGVILLE      CLEAR     63  63 100 CALM      30.17S FOG
GRAND RAPIDS   CLEAR     68  65  90 NW7       30.18S
CRANE LAKE     CLEAR     57  57 100 CALM      30.15R
ORR            PTCLDY    64  61  88 CALM      30.13R
COOK           PTCLDY    63  63 100 CALM      30.15S
WALKER         FAIR      61  60  97 CALM      30.18S
$$
MNZ012-019>021-037-300500-
   Northeast Minnesota

CITY           SKY/WX    TMP DP  RH WIND       PRES   REMARKS
DULUTH         CLOUDY    67  65  93 W13       30.13F
ELY            FOG       64  64 100 CALM      30.15R VSB 1/2
HIBBING        CLEAR     64  64 100 W3        30.15S
EVELETH        CLEAR     65  64  97 CALM      30.16R
DULUTH HARBOR  CLOUDY    68  66  94 W10       30.10F
TWO HARBORS    CLOUDY    70  64  83 CALM      30.10F
SILVER BAY     CLOUDY    72  66  83 CALM      30.10F
GRAND MARAIS     N/A     64  63  96 SW3       30.08R
G MARAIS ARPRT CLOUDY    66  61  82 W5        30.14R
$$
MNZ029>031-032-039>041-046>048-054>057-064-300500-
   West Central Minnesota

CITY           SKY/WX    TMP DP  RH WIND       PRES   REMARKS
FERGUS FALLS   CLEAR     66  66 100 CALM      30.19S
WHEATON        CLOUDY    70  64  83 N5        30.19R
MORRIS         CLOUDY    72  70  94 N8        30.15R
ALEXANDRIA     CLOUDY    71  67  87 N10       30.18F
ELBOW LAKE     FAIR      67  65  94 N6        30.18S
WADENA         CLEAR     63  61  94 N3        30.18R
GLENWOOD       CLOUDY    72  68  88 N8        30.16F
APPLETON       CLOUDY    75  70  83 NE6       30.14R
BENSON         CLOUDY    73  68  83 NE7       30.14S
ORTONVILLE     CLOUDY    73  64  73 N10       30.15S
MADISON        MOCLDY    75  72  88 N7        30.15R
WILLMAR        MOCLDY    75  73  94 CALM      30.14F
$$
MNZ033>034-036-042>043-049>051-058-059-300500-
   Central Minnesota

CITY           SKY/WX    TMP DP  RH WIND       PRES   REMARKS
ST CLOUD       TSTM      67  67 100 VRB3      30.19R VSB 3/4
SAUK CENTRE    FAIR      73  68  85 N9        30.15S
PAYNESVILLE    CLOUDY    76  75  96 N10       30.12F THUNDER
AITKIN         CLOUDY    70  63  78 CALM      30.15S
PINE RIVER     CLEAR     64  64 100 CALM      30.20S FOG
BRAINERD       CLOUDY    72  67  84 N7        30.16S
STAPLES        CLOUDY    64  64 100 NW3       30.17F
LONG PRAIRIE   FAIR      70  68  94 NW5       30.17S
LITTLE FALLS   CLOUDY    70  64  83 CALM      30.17R
LITCHFIELD     MOCLDY    75  73  94 CALM      30.12F
BUFFALO        TSTM      66  63  90 N9G20     30.18R
MAPLE LAKE     TSTM      68  66  94 N3G20     30.20R
HUTCHINSON     CLEAR     75  73  93 S5        30.14F
$$
MNZ037-044-045-052-053-300500-
   East Central Minnesota

CITY           SKY/WX    TMP DP  RH WIND       PRES   REMARKS
PRINCETON      TSTM      68  64  88 SW8       30.13F
MORA           CLOUDY    64  63  94 CALM      30.18R
CAMBRIDGE      CLOUDY    70  63  78 NE3       30.15R
RUSH CITY      RAIN      68  66  93 S3        30.17S
MOOSE LAKE     CLOUDY    64  63  94 CALM      30.13S
HINCKLEY       FAIR      64  64 100 W5        30.16S
CLOQUET        CLOUDY    64  63  94 SW6       30.14F
MCGREGOR       CLOUDY    70  63  78 CALM      30.16S
$$
MNZ071>073-080-081-089-090-097-098-300500-
   Southwest Minnesota

CITY           SKY/WX    TMP DP  RH WIND       PRES   REMARKS
MONTEVIDEO     PTCLDY    73  70  88 W3        30.15S
GRANITE FALLS  PTCLDY    74  71  91 S7        30.15S
CANBY          PTCLDY    74  67  77 NW7       30.17R
MARSHALL       CLEAR     74  70  87 SW10      30.14F
REDWOOD FALLS  CLEAR     75  69  81 SW10      30.13F
OLIVIA         PTCLDY    73  72  94 SW7       30.12F
PIPESTONE        N/A     70  66  88 S3        30.19F
WINDOM         PTCLDY    73  70  88 S6        30.19S
WORTHINGTON    CLOUDY    72  70  93 S7        30.21S
JACKSON        PTCLDY    72  68  88 SW5       30.20F
TRACY          CLOUDY    74  70  88 SW10      30.16F
SLAYTON        PTCLDY    70  68  94 SW6       30.20F
$$
MNZ065>067-074>077-082>085-091>093-300500-
   South Central Minnesota

CITY           SKY/WX    TMP DP  RH WIND       PRES   REMARKS
NEW ULM        CLEAR     72  72 100 SW8       30.15F
ST JAMES       CLOUDY    72  68  88 S8        30.18S
FAIRMONT       CLOUDY    69  67  93 S6        30.19S
GLENCOE        MOCLDY    74  72  95 S7        30.12F
FARIBAULT      CLEAR     72  68  88 S5        30.18R
OWATONNA       CLOUDY    72  66  83 S6        30.18S
WASECA         CLOUDY    68  64  88 S6        30.19F
ALBERT LEA     CLOUDY    72  68  88 CALM      30.20S
$$
MNZ078>079-086>088-094>096-300500-
   Southeast Minnesota

CITY           SKY/WX    TMP DP  RH WIND       PRES   REMARKS
ROCHESTER      CLOUDY    69  68  96 S6        30.20R
RED WING       CLEAR     72  70  94 CALM      30.15R
STANTON        CLEAR     72  68  88 S3        30.15R
DODGE CENTER   CLOUDY    68  66  94 SW6       30.20R
WINONA         CLOUDY    72  70  94 CALM      30.18R
AUSTIN         PTCLDY    70  66  88 CALM      30.20R FOG
PRESTON        PTCLDY    70  68  94 CALM      30.21R FOG
$$
ABBREVIATIONS USED IN REMARKS
   TC - TEMPERATURES IN CELSIUS
  WCI - WIND CHILL INDEX
   HX - HEAT INDEX
  VSB - VISIBILITY
$$




USA.gov is the U.S. government's official web portal to all federal, state and local government web resources and services.